Harlan, IA

11:14 PM CDT on May 27, 2018 (GMT -0500)
Harlan Municipal

Weather History for KHNR - May, 2014

Change the Weather History Date:

Friday, May 2, 2014

  Actual Average Record
Temperature  
Mean Temperature 52 °F -  
Max Temperature 69 °F 68 °F 89 °F (1968)
Min Temperature 35 °F 42 °F 25 °F (1961)
Degree Days  
Heating Degree Days 13    
Growing Degree Days 2 (Base 50)    
Moisture  
Dew Point 38 °F    
Average Humidity 62    
Maximum Humidity 93    
Minimum Humidity 28    
Precipitation  
Precipitation 0.00 in - - ()
Sea Level Pressure  
Sea Level Pressure 29.87 in    
Wind  
Wind Speed 11 mph (West)    
Max Wind Speed 21 mph    
Max Gust Speed 29 mph    
Visibility 10 miles    
Events      
Averages and records for this station are not official NWS values.
T = Trace of Precipitation, MM = Missing Value Source: NWS Daily Summary

Daily Weather History Graph

Daily Weather History Graph

Search for Another Location

Airport or City:

Astronomy

May. 02, 2014 Rise Set
Actual Time 6:16 AM CDT 8:20 PM CDT
Civil Twilight 5:46 AM CDT 8:50 PM CDT
Nautical Twilight 5:09 AM CDT 9:28 PM CDT
Astronomical Twilight 4:29 AM CDT 10:08 PM CDT
Moon 8:54 AM CDT (5/2) 11:44 PM CDT (5/2)
Length of Visible Light 15h 04m
Length of Day
14h 03m
Waxing Crescent, 12% of the Moon is Illuminated
May 2
Waxing Crescent
May 6
First Quarter
May 14
Full
May 21
Last Quarter
May 28
New

Hourly Weather History & Observations

Time (CDT) Temp. Windchill Dew Point Humidity Pressure Visibility Wind Dir Wind Speed Gust Speed Precip Events Conditions
12:15 AM 42.8 °F 37.5 °F 37.4 °F 81% 29.98 in 10.0 mi WNW 9.2 mph - N/A   Scattered Clouds
12:55 AM 41.0 °F 34.3 °F 37.4 °F 87% 29.98 in 10.0 mi West 11.5 mph - N/A   Clear
1:15 AM 39.2 °F 33.0 °F 37.4 °F 93% 29.98 in 10.0 mi West 9.2 mph - N/A   Partly Cloudy
1:35 AM 39.2 °F 33.0 °F 37.4 °F 93% 29.97 in 10.0 mi West 9.2 mph - N/A   Mostly Cloudy
1:55 AM 39.2 °F 33.0 °F 37.4 °F 93% 29.97 in 10.0 mi West 9.2 mph - N/A   Overcast
2:15 AM 39.2 °F 33.0 °F 37.4 °F 93% 29.96 in 10.0 mi West 9.2 mph - N/A   Scattered Clouds
2:35 AM 39.2 °F 32.5 °F 37.4 °F 93% 29.96 in 10.0 mi West 10.4 mph - N/A   Clear
2:55 AM 37.4 °F 30.8 °F 35.6 °F 93% 29.96 in 10.0 mi West 9.2 mph - N/A   Clear
3:15 AM 37.4 °F 30.8 °F 35.6 °F 93% 29.96 in 10.0 mi West 9.2 mph - N/A   Clear
3:35 AM 37.4 °F 31.4 °F 35.6 °F 93% 29.95 in 10.0 mi West 8.1 mph - N/A   Clear
3:55 AM 37.4 °F 30.3 °F 35.6 °F 93% 29.95 in 10.0 mi West 10.4 mph - N/A   Clear
4:15 AM 37.4 °F 30.3 °F 35.6 °F 93% 29.94 in 10.0 mi West 10.4 mph - N/A   Clear
4:35 AM 39.2 °F 32.0 °F 35.6 °F 87% 29.94 in 10.0 mi West 11.5 mph - N/A   Clear
4:55 AM 37.4 °F 29.8 °F 35.6 °F 93% 29.93 in 10.0 mi West 11.5 mph - N/A   Clear
5:15 AM 37.4 °F 29.8 °F 33.8 °F 87% 29.93 in 10.0 mi West 11.5 mph - N/A   Clear
5:35 AM 37.4 °F 30.3 °F 33.8 °F 87% 29.93 in 10.0 mi West 10.4 mph - N/A   Clear
5:55 AM 35.6 °F 29.2 °F 33.8 °F 93% 29.92 in 10.0 mi WSW 8.1 mph - N/A   Clear
6:15 AM 35.6 °F 29.9 °F 33.8 °F 93% 29.92 in 10.0 mi WSW 6.9 mph - N/A   Clear
6:35 AM 35.6 °F 29.2 °F 33.8 °F 93% 29.92 in 10.0 mi WSW 8.1 mph - N/A   Clear
6:55 AM 37.4 °F 32.1 °F 35.6 °F 93% 29.92 in 10.0 mi SW 6.9 mph - N/A   Clear
7:15 AM 39.2 °F 35.0 °F 35.6 °F 87% 29.92 in 10.0 mi SSW 5.8 mph - N/A   Clear
7:35 AM 39.2 °F 35.9 °F 35.6 °F 87% 29.92 in 10.0 mi SSW 4.6 mph - N/A   Clear
7:55 AM 42.8 °F 37.5 °F 37.4 °F 81% 29.92 in 10.0 mi SW 9.2 mph - N/A   Clear
8:15 AM 42.8 °F 37.5 °F 37.4 °F 81% 29.92 in 10.0 mi WSW 9.2 mph - N/A   Clear
8:35 AM 44.6 °F 39.2 °F 37.4 °F 76% 29.91 in 10.0 mi WSW 10.4 mph - N/A   Clear
8:55 AM 46.4 °F 41.1 °F 39.2 °F 76% 29.90 in 10.0 mi WSW 11.5 mph - N/A   Clear
9:15 AM 50.0 °F - 39.2 °F 66% 29.89 in 10.0 mi WSW 12.7 mph - N/A   Clear
9:35 AM 50.0 °F - 39.2 °F 66% 29.88 in 10.0 mi WSW 11.5 mph - N/A   Clear
9:55 AM 53.6 °F - 39.2 °F 58% 29.88 in 10.0 mi WSW 11.5 mph - N/A   Clear
10:15 AM 55.4 °F - 37.4 °F 51% 29.88 in 10.0 mi West 15.0 mph - N/A   Clear
10:35 AM 57.2 °F - 39.2 °F 51% 29.87 in 10.0 mi WSW 17.3 mph - N/A   Clear
10:55 AM 57.2 °F - 37.4 °F 48% 29.87 in 10.0 mi WSW 17.3 mph - N/A   Partly Cloudy
11:15 AM 59.0 °F - 39.2 °F 48% 29.87 in 10.0 mi West 20.7 mph - N/A   Partly Cloudy
11:35 AM 60.8 °F - 39.2 °F 45% 29.86 in 10.0 mi WSW 15.0 mph - N/A   Partly Cloudy
11:55 AM 60.8 °F - 39.2 °F 45% 29.85 in 10.0 mi West 17.3 mph 25.3 mph N/A   Clear
12:15 PM 62.6 °F - 39.2 °F 42% 29.84 in 10.0 mi WSW 19.6 mph - N/A   Clear
12:35 PM 64.4 °F - 35.6 °F 34% 29.83 in 10.0 mi West 17.3 mph 24.2 mph N/A   Clear
12:55 PM 66.2 °F - 39.2 °F 37% 29.82 in 10.0 mi WSW 18.4 mph - N/A   Clear
1:15 PM 66.2 °F - 37.4 °F 35% 29.81 in 10.0 mi WSW 19.6 mph 27.6 mph N/A   Scattered Clouds
1:30 PM 66.2 °F - 33.8 °F 30% 29.80 in 10.0 mi WSW 18.4 mph 25.3 mph N/A   Partly Cloudy
1:55 PM 68.0 °F - 33.8 °F 28% 29.79 in 10.0 mi West 20.7 mph - N/A   Clear
2:15 PM 69.8 °F - 35.6 °F 28% 29.78 in 10.0 mi WSW 19.6 mph 28.8 mph N/A   Clear
2:35 PM 68.0 °F - 35.6 °F 30% 29.77 in 10.0 mi WSW 15.0 mph 26.5 mph N/A   Scattered Clouds
2:55 PM 68.0 °F - 37.4 °F 33% 29.77 in 10.0 mi West 20.7 mph 27.6 mph N/A   Mostly Cloudy
3:15 PM 68.0 °F - 41.0 °F 37% 29.78 in 10.0 mi NW 17.3 mph - N/A   Partly Cloudy
3:35 PM 68.0 °F - 41.0 °F 37% 29.77 in 10.0 mi WNW 16.1 mph 24.2 mph N/A   Partly Cloudy
3:55 PM 66.2 °F - 41.0 °F 40% 29.77 in 10.0 mi WNW 12.7 mph 21.9 mph N/A   Scattered Clouds
4:15 PM 64.4 °F - 44.6 °F 49% 29.78 in 10.0 mi NNW 17.3 mph - N/A   Mostly Cloudy
4:35 PM 62.6 °F - 44.6 °F 52% 29.78 in 10.0 mi NW 12.7 mph 20.7 mph N/A   Overcast
4:55 PM 62.6 °F - 44.6 °F 52% 29.79 in 10.0 mi NW 12.7 mph - N/A   Overcast
5:15 PM 62.6 °F - 42.8 °F 48% 29.79 in 10.0 mi NNW 15.0 mph 20.7 mph N/A   Overcast
5:35 PM 62.6 °F - 39.2 °F 42% 29.79 in 10.0 mi NW 18.4 mph - N/A   Mostly Cloudy
5:55 PM 62.6 °F - 37.4 °F 39% 29.79 in 10.0 mi NNW 16.1 mph 21.9 mph N/A   Mostly Cloudy
6:15 PM 62.6 °F - 35.6 °F 37% 29.79 in 10.0 mi NW 13.8 mph - N/A   Overcast
6:35 PM 62.6 °F - 32.0 °F 32% 29.79 in 10.0 mi NW 18.4 mph - N/A   Mostly Cloudy
6:55 PM 62.6 °F - 35.6 °F 37% 29.80 in - NW 15.0 mph - N/A   Scattered Clouds
7:15 PM 60.8 °F - 37.4 °F 42% 29.81 in 10.0 mi NNW 13.8 mph - N/A   Mostly Cloudy
7:35 PM 59.0 °F - 39.2 °F 48% 29.81 in 10.0 mi NW 8.1 mph - N/A   Partly Cloudy
7:55 PM 59.0 °F - 39.2 °F 48% 29.81 in 10.0 mi NNW 6.9 mph - N/A   Clear
8:15 PM 55.4 °F - 39.2 °F 54% 29.82 in 10.0 mi NNW 6.9 mph - N/A   Clear
8:35 PM 51.8 °F - 39.2 °F 62% 29.83 in 10.0 mi NW 8.1 mph - N/A   Clear
8:55 PM 53.6 °F - 39.2 °F 58% 29.83 in 10.0 mi NW 11.5 mph - N/A   Clear
9:15 PM 53.6 °F - 39.2 °F 58% 29.83 in 10.0 mi NW 10.4 mph - N/A   Clear
9:35 PM 53.6 °F - 37.4 °F 54% 29.84 in 10.0 mi NW 9.2 mph - N/A   Clear
9:55 PM 53.6 °F - 37.4 °F 54% 29.84 in 10.0 mi NW 9.2 mph - N/A   Clear
10:15 PM 53.6 °F - 39.2 °F 58% 29.84 in 10.0 mi NW 8.1 mph - N/A   Clear
10:35 PM 53.6 °F - 39.2 °F 58% 29.85 in 10.0 mi WNW 6.9 mph - N/A   Partly Cloudy
10:55 PM 51.8 °F - 41.0 °F 67% 29.85 in 10.0 mi WNW 8.1 mph - N/A   Scattered Clouds
11:15 PM 53.6 °F - 39.2 °F 58% 29.86 in 10.0 mi WNW 10.4 mph - N/A   Overcast
11:35 PM 53.6 °F - 39.2 °F 58% 29.86 in 10.0 mi WNW 10.4 mph - N/A   Scattered Clouds
11:55 PM 53.6 °F - 39.2 °F 58% 29.86 in 10.0 mi WNW 11.5 mph - N/A   Mostly Cloudy